Theta_e
323 323 324 324 325 326 327 328 329 329 329 329 329 329 328 328 328 328 328 327 328 329 329 329 329 329 328 327 327 326 326 326 326 326 327 328 328 328 329 329 328 328 328 327 327 327 326 326 326 326 326 326 325 325 325 325 325 325 325 325 325 325 325 324 324 325 324 324 324 324 324 324 324 324 323 324 323 323 323 322 322 322 322 322 322
323 324 324 324 324 324 325 325 326 327 328 328 328 328 329 328 328 328 327 327 328 328 329 328 327 326 325 324 324 323 322 322 322 323 324 325 326 326 327 328 328 328 327 327 327 327 327 326 326 326 326 326 325 325 325 325 325 325 325 325 325 325 325 324 324 324 324 324 324 324 324 324 323 323 323 323 323 323 323 322 322 322 322 322 322
323 323 323 323 323 323 323 323 323 323 325 326 327 327 328 328 327 327 327 327 328 327 326 325 324 322 321 320 319 318 318 318 319 320 321 322 323 324 325 326 326 327 327 327 327 327 327 326 326 326 326 326 325 325 325 325 325 325 325 325 325 325 325 325 324 324 324 324 324 324 324 323 323 323 323 323 323 322 322 322 322 322 322 322 322
322 322 322 322 322 321 322 322 321 322 322 323 324 325 326 327 327 327 327 326 325 323 322 320 318 317 316 316 315 315 316 316 317 318 319 320 321 322 323 324 325 326 326 326 327 326 326 326 326 326 325 325 325 325 325 325 325 325 324 324 324 324 324 324 324 324 324 323 324 324 323 323 323 322 322 322 322 322 321 321 321 321 322 321 321
320 321 321 320 320 320 320 320 321 321 322 323 324 325 326 327 326 325 324 322 320 318 317 316 315 315 314 314 314 314 315 315 316 317 317 318 319 320 321 322 323 324 325 325 325 325 325 325 325 325 325 325 325 325 325 325 324 324 324 324 324 324 324 324 324 324 323 323 323 323 323 322 322 322 322 322 321 321 321 321 321 321 321 321 320
320 319 319 318 318 319 319 320 321 321 322 323 324 325 325 324 322 320 318 317 316 316 315 315 314 313 312 312 312 313 313 314 314 315 315 316 317 318 319 320 321 322 323 323 323 324 324 324 325 325 325 325 324 325 324 324 324 324 324 323 323 324 324 323 323 323 323 322 322 322 322 321 321 322 321 320 320 320 320 320 320 320 320 319 319
318 317 317 317 318 319 320 321 321 322 322 323 323 322 321 319 317 316 315 314 314 314 314 313 312 312 311 311 311 311 311 311 311 312 312 313 314 316 317 318 319 321 321 322 322 323 323 323 324 324 324 324 324 324 324 324 324 324 323 323 323 323 323 322 322 322 321 321 320 320 320 320 320 320 319 319 319 319 319 318 318 318 318 319 319
316 316 317 317 318 319 320 321 321 321 320 320 319 317 316 315 313 313 312 312 313 313 312 312 311 310 310 309 309 309 309 309 309 309 310 311 312 313 314 316 318 319 320 320 321 321 322 322 322 323 323 323 323 323 323 323 323 323 323 323 323 323 322 322 321 320 320 319 319 319 319 319 319 318 318 318 317 317 318 317 317 317 317 317 318
316 316 316 317 318 319 319 319 319 318 316 315 314 313 311 311 310 310 310 311 311 311 310 310 309 308 308 308 308 307 307 307 308 308 309 309 310 311 312 314 315 316 316 317 318 319 320 320 320 321 321 320 320 321 321 321 321 321 321 322 322 322 321 321 320 320 319 318 317 318 318 317 317 317 317 317 316 316 317 317 316 316 316 316 316
315 315 315 316 317 317 318 318 316 315 313 312 310 309 309 309 309 309 310 310 309 309 308 308 307 307 307 307 307 307 307 307 307 308 308 309 309 310 310 311 311 312 313 314 315 317 318 318 318 318 318 318 317 318 318 319 319 319 319 319 319 319 319 319 319 319 318 317 317 317 315 315 316 316 316 317 316 316 316 315 315 315 314 314 314
315 315 315 315 316 316 316 315 314 313 312 310 309 308 308 308 309 309 309 308 308 307 307 307 306 306 306 306 306 306 306 306 306 306 307 307 308 308 308 308 309 309 310 311 312 313 314 315 315 315 316 316 316 316 316 316 316 317 317 317 317 317 316 316 316 316 316 315 315 315 314 314 315 315 314 314 314 313 313 312 311 312 311 311 312
314 315 315 315 315 315 315 314 313 313 311 309 308 307 307 308 308 308 307 307 306 306 306 306 306 306 306 305 305 304 304 304 304 304 304 304 305 306 307 307 308 308 308 308 308 308 309 309 310 311 312 312 313 313 314 314 314 314 315 315 315 315 315 314 314 314 314 313 313 312 312 312 312 311 311 311 310 310 310 309 308 308 308 308 309
314 314 315 316 315 315 314 313 313 312 309 308 307 307 307 307 307 307 306 306 306 306 306 305 305 305 305 304 304 303 302 302 302 302 301 302 302 303 305 305 306 306 306 306 306 306 306 307 307 308 308 309 309 310 311 311 311 311 312 312 312 313 313 312 312 312 312 312 312 311 310 309 309 308 308 308 308 308 307 307 306 306 306 306 306
313 314 315 315 315 314 313 312 311 309 308 307 307 307 307 307 306 306 306 305 305 305 305 305 305 304 303 303 302 301 301 301 300 301 301 301 301 302 303 303 304 305 305 305 306 306 306 306 307 307 307 307 308 308 309 309 310 310 310 310 310 310 310 310 310 309 309 309 309 308 307 307 307 306 306 305 305 306 306 306 305 305 304 304 305
311 312 313 312 312 311 310 309 309 308 307 306 306 307 307 306 305 305 305 304 304 304 305 304 304 303 302 301 301 301 300 300 299 299 300 300 301 302 302 303 304 304 305 305 305 305 305 305 306 306 306 306 307 307 307 308 308 308 308 308 308 307 308 307 307 306 306 305 305 304 304 304 304 304 303 303 303 303 304 304 303 303 303 303 304
310 310 310 309 309 308 308 308 307 306 306 306 306 306 306 305 305 304 303 303 303 303 303 303 302 301 300 300 300 299 299 299 298 299 299 299 300 301 301 302 303 304 304 304 304 304 304 304 304 305 305 305 305 305 306 306 306 306 305 305 305 305 304 304 303 303 303 302 302 302 301 301 301 301 301 300 300 300 301 301 301 301 300 300 301
308 308 308 308 308 307 307 307 306 306 305 305 305 305 305 304 304 303 303 302 302 302 301 300 300 299 299 299 299 299 298 298 297 297 298 298 299 299 300 301 302 302 302 302 302 302 302 303 303 303 304 304 304 304 304 305 304 304 304 304 303 303 303 302 302 302 302 301 301 300 300 299 299 299 298 298 298 298 299 299 299 298 297 297 298
307 307 307 308 307 306 306 306 306 305 305 304 305 304 304 304 303 303 302 302 302 300 299 298 298 298 299 299 299 298 297 296 296 297 297 297 298 298 299 300 301 301 301 300 300 300 300 300 301 301 301 301 302 303 303 303 303 303 303 302 302 302 302 301 300 300 300 300 299 299 298 298 297 297 297 296 296 296 296 296 295 295 295 295 295
307 307 307 307 307 306 306 305 305 304 304 304 304 304 303 303 302 302 302 301 300 299 297 297 297 298 298 298 297 297 295 295 296 296 297 297 297 298 299 299 299 299 299 298 298 298 298 298 298 298 298 298 299 300 300 301 300 301 301 300 300 298 298 298 297 297 297 297 297 296 296 296 295 295 295 294 294 294 294 293 292 292 293 293 293
308 308 306 306 306 306 305 305 304 304 304 304 304 303 303 302 301 300 300 299 298 297 297 297 297 297 296 296 295 294 294 294 295 296 297 297 297 298 298 298 298 297 297 296 296 295 296 297 297 297 297 297 297 298 298 298 298 298 298 298 297 295 295 295 295 295 295 295 294 294 294 293 293 293 292 292 292 292 291 291 291 291 292 292 292
307 306 305 305 305 305 305 304 304 304 304 303 303 302 301 300 300 299 297 296 296 296 296 296 296 295 295 294 293 292 293 294 294 294 295 296 297 297 297 297 297 296 295 294 294 294 295 295 295 295 295 295 295 296 296 296 296 296 295 295 295 294 293 293 293 293 293 293 292 291 291 291 290 290 290 290 290 290 290 290 290 291 291 291 292
306 305 304 304 304 304 304 304 304 304 303 302 301 300 299 299 298 297 296 295 295 295 295 294 294 293 292 291 291 291 292 293 293 294 294 295 296 296 297 296 296 296 295 294 294 294 294 294 294 293 293 293 293 293 293 293 293 293 293 293 292 292 292 292 292 292 291 291 290 290 290 289 289 289 289 289 289 289 289 289 290 290 291 291 291
304 304 304 303 304 304 303 303 303 302 302 301 300 298 297 296 296 294 294 294 294 293 293 293 291 290 289 288 289 290 290 291 292 293 293 294 294 295 295 294 294 294 295 295 294 294 294 294 293 291 291 291 291 291 291 291 291 291 291 291 291 291 291 291 291 290 290 289 289 289 288 288 288 288 288 288 288 288 288 288 289 289 289 290 291
303 302 302 302 302 302 301 302 301 301 300 299 298 297 296 294 293 292 293 293 292 291 290 290 289 287 287 287 287 288 289 290 291 291 292 293 293 293 293 293 293 293 294 294 294 294 294 293 291 290 290 290 291 291 291 291 291 291 291 291 291 291 291 290 289 289 289 288 288 288 288 288 287 287 288 288 288 288 288 288 288 289 289 290 291
301 301 301 300 300 300 299 299 299 299 298 298 297 295 294 292 291 291 292 292 291 290 288 288 287 287 286 286 286 287 288 289 289 290 291 291 292 292 292 292 293 293 293 293 293 294 293 292 290 289 290 290 290 290 290 290 290 290 290 289 289 289 289 289 288 288 288 287 287 287 287 287 287 287 287 287 287 287 287 288 288 288 289 291 291
300 299 299 298 298 298 297 296 296 296 296 296 295 294 292 290 290 291 291 291 290 289 288 288 287 287 287 287 287 286 287 287 288 289 289 290 290 291 291 291 291 292 292 293 292 292 292 291 290 289 289 289 289 289 289 289 288 288 288 288 288 288 288 287 287 287 286 286 286 286 286 286 286 286 286 287 287 287 287 287 288 288 289 290 290
298 297 296 296 296 295 295 294 294 293 293 293 292 291 290 290 290 290 291 290 289 288 288 288 287 287 286 287 287 286 286 286 286 287 288 288 289 289 290 290 291 291 291 292 292 291 291 290 290 289 289 289 288 288 288 287 287 287 286 286 286 286 286 286 286 286 285 285 285 285 285 285 285 286 286 286 286 286 286 287 287 287 288 289 289
296 295 294 294 293 293 294 293 292 291 291 291 290 289 289 289 290 290 290 290 289 289 288 288 288 287 287 287 287 286 285 285 285 286 286 287 287 288 289 289 290 291 291 291 291 291 290 290 289 289 288 288 288 287 287 287 286 286 285 285 285 285 285 285 285 285 284 284 284 284 284 284 284 284 284 285 285 285 285 285 285 285 286 287 286
295 293 292 292 291 291 291 291 291 291 290 290 289 289 289 290 290 290 290 290 290 290 290 289 289 289 289 288 287 286 286 286 286 285 286 286 286 286 287 287 288 289 290 290 290 290 290 289 289 288 287 287 287 286 286 286 285 285 284 284 284 284 284 284 284 284 283 283 283 283 283 283 283 282 283 283 283 283 284 284 283 283 283 283 283
292 291 291 290 290 290 290 290 290 290 289 289 289 288 289 290 290 290 290 290 290 291 291 291 291 290 290 289 288 288 288 287 286 286 286 286 286 286 286 286 286 287 288 289 290 290 289 289 288 287 287 286 286 285 285 284 284 283 282 282 282 282 282 282 282 282 282 282 282 281 281 280 280 281 281 281 281 281 281 281 281 281 281 281 281
290 289 289 289 290 290 289 289 289 288 288 288 288 287 287 288 289 290 290 290 290 291 291 291 291 291 290 289 288 288 288 287 286 286 286 286 286 285 285 285 285 285 287 288 289 289 288 288 287 286 285 285 284 282 282 281 281 280 280 279 280 280 280 280 280 280 281 281 280 279 278 278 278 278 278 279 279 279 279 279 279 279 279 279 279
290 288 288 289 289 289 288 288 287 287 286 286 287 287 286 285 286 287 288 289 290 290 290 290 290 290 289 289 288 287 286 286 286 286 285 284 284 284 284 285 284 284 286 288 288 287 287 286 285 283 283 282 280 279 279 279 278 278 278 277 277 278 278 278 278 279 279 279 278 277 277 276 276 276 277 277 277 277 277 277 277 277 277 277 277
290 288 288 288 288 288 287 287 287 286 286 286 286 286 286 285 284 284 285 286 287 288 288 288 288 288 287 287 287 286 285 285 285 284 283 283 283 283 283 284 284 284 285 287 288 286 285 284 283 281 280 279 278 277 277 277 277 277 277 276 276 276 276 276 277 277 278 277 276 275 274 274 274 274 275 275 275 274 274 275 275 275 276 276 276
290 289 288 288 287 287 287 287 286 286 286 286 286 286 286 285 284 283 283 283 284 284 285 285 286 286 286 285 285 284 283 283 283 283 283 282 282 282 283 283 283 283 285 286 287 285 284 282 281 280 279 278 277 277 277 277 276 276 276 275 275 275 275 275 275 275 275 275 274 273 272 272 272 273 273 273 273 273 273 273 274 274 274 274 274
289 288 288 288 287 287 287 286 286 286 286 286 286 286 285 284 284 284 283 283 282 282 282 282 283 284 284 283 283 282 282 281 281 281 282 281 281 282 282 282 282 282 284 285 285 284 282 281 279 278 277 276 276 276 276 276 276 275 274 274 274 274 274 274 273 272 272 272 272 271 271 271 271 271 271 271 272 272 272 273 273 273 273 273 273
288 288 287 287 287 287 286 286 286 286 286 286 285 285 284 284 284 283 283 283 282 281 280 281 281 281 282 281 281 280 280 279 280 280 280 280 280 281 282 281 281 281 281 282 282 281 280 279 277 276 275 275 275 274 275 275 274 274 273 273 273 272 272 271 271 270 270 270 270 270 270 271 271 271 271 271 271 271 271 272 272 272 272 273 273
287 287 287 287 287 286 286 286 286 286 285 285 285 284 284 284 284 283 282 282 281 280 279 279 280 280 280 280 279 279 278 278 278 279 279 279 279 280 281 281 280 280 279 279 279 278 277 276 275 275 274 274 274 274 273 273 273 273 272 271 271 270 270 269 269 269 269 270 270 270 270 270 270 270 270 270 270 270 270 271 271 272 272 272 272
287 286 286 287 287 286 286 285 285 285 284 284 284 284 284 283 283 283 282 281 280 279 279 278 279 279 279 279 278 278 277 277 277 277 277 278 278 279 279 280 279 278 278 277 276 276 275 274 273 273 273 273 273 273 272 272 272 272 271 270 270 269 269 269 269 269 269 269 270 270 270 269 269 269 269 269 269 270 270 270 270 270 271 271 271
285 286 286 286 286 286 285 285 284 284 284 284 284 284 284 284 283 283 282 281 280 279 278 277 277 277 278 278 278 277 276 276 275 275 275 276 276 277 277 278 277 276 276 275 274 274 273 272 271 272 272 272 271 271 271 271 271 270 269 269 269 269 269 269 269 269 269 269 269 269 269 269 268 268 268 269 269 269 269 269 270 270 270 270 270
284 284 285 285 285 285 285 285 285 284 284 284 284 284 284 283 283 283 281 280 279 278 277 276 276 277 278 278 277 277 276 275 275 274 274 274 274 274 275 275 275 274 274 273 273 272 272 271 270 270 270 270 270 270 270 270 270 269 269 269 270 269 269 269 268 268 268 268 268 268 268 268 268 268 268 268 268 268 269 269 269 269 269 269 270
283 283 284 284 284 284 284 284 284 284 284 284 284 284 283 283 283 282 281 280 279 278 276 276 276 276 277 277 276 276 276 275 274 273 273 272 272 272 272 273 273 273 272 272 271 271 271 270 269 269 269 269 269 270 270 270 270 269 269 269 270 269 269 268 268 268 268 268 268 268 267 267 267 267 267 267 267 268 268 268 268 269 269 269 269
282 282 282 283 283 283 283 282 283 283 283 283 283 283 282 282 282 281 281 280 278 276 275 274 275 275 275 275 275 275 275 274 273 272 271 271 270 270 270 270 271 271 271 270 270 270 269 269 268 268 268 269 269 269 269 269 269 269 269 269 269 269 268 267 267 267 267 267 267 267 267 267 267 267 266 267 267 267 267 268 268 268 268 269 269
282 282 282 282 282 282 281 281 281 281 281 281 281 281 281 281 280 280 279 278 277 276 274 273 273 273 273 273 274 274 273 273 272 271 270 269 268 268 268 268 268 269 269 268 268 268 268 268 267 268 268 268 268 268 268 268 268 268 268 268 268 268 267 267 267 267 267 268 267 267 267 266 266 266 266 266 267 267 267 267 268 268 268 268 269
281 280 280 280 280 280 280 280 280 280 279 279 279 279 279 279 279 279 278 277 276 275 274 273 272 272 272 272 272 272 272 271 270 269 268 268 267 267 267 267 267 267 267 266 266 266 266 267 267 267 267 267 267 268 268 267 267 267 267 268 268 267 267 267 267 268 268 268 268 268 268 267 266 267 267 267 267 267 267 267 267 267 268 268 268
279 278 278 278 278 278 278 278 278 278 278 278 278 278 278 278 278 277 277 276 274 274 273 272 272 272 271 270 270 270 270 269 269 268 267 266 266 266 265 265 266 266 266 266 265 265 265 266 266 266 266 266 266 267 267 267 266 266 267 267 267 267 267 267 268 268 269 269 269 269 269 268 268 268 269 269 269 269 268 267 267 267 267 267 268
277 277 277 276 276 276 276 276 277 277 277 277 277 276 276 276 276 276 275 275 274 273 273 272 271 271 270 270 269 269 269 268 267 266 266 265 265 265 265 265 265 266 266 266 266 266 266 266 266 266 266 266 266 266 266 266 266 266 266 267 267 267 267 267 267 268 268 268 268 268 269 269 269 268 268 268 269 269 269 268 267 266 266 267 267
276 275 275 275 275 275 275 275 275 276 276 276 275 275 275 275 275 274 274 273 273 272 272 271 271 270 270 269 269 268 267 267 266 265 265 265 265 265 265 265 265 266 266 266 266 266 266 266 266 266 266 266 266 266 266 266 266 266 266 266 267 267 266 266 266 267 267 267 267 267 268 268 268 268 267 267 268 268 268 267 266 266 266 266 266
274 274 274 274 274 274 274 274 274 274 274 274 274 274 273 273 273 272 272 271 271 271 270 270 269 269 268 268 267 267 266 266 265 265 264 264 264 264 265 265 265 265 265 265 265 266 266 266 266 266 266 266 266 266 266 266 266 266 266 266 266 266 265 265 266 266 266 266 266 266 267 267 267 267 266 266 266 267 267 266 265 265 265 265 265
273 273 273 273 273 273 273 273 273 273 273 272 272 271 271 271 270 270 270 270 270 269 269 269 268 268 267 267 266 266 265 265 264 264 264 264 264 264 264 265 265 265 265 266 266 266 266 266 266 266 266 266 266 266 266 266 266 266 266 266 266 266 265 265 265 265 266 266 266 266 266 266 266 266 265 265 265 265 266 265 265 264 264 264 264
272 272 272 272 272 272 272 272 272 272 272 271 270 270 270 270 269 269 269 269 268 268 268 268 267 267 266 266 265 265 264 264 264 264 264 264 264 264 264 265 265 266 266 266 266 266 266 267 267 267 267 267 267 267 267 267 266 266 266 266 266 266 265 265 264 265 265 265 266 266 266 266 265 265 265 265 265 265 265 265 265 265 264 264 264
270 270 271 271 271 271 271 271 270 270 271 271 270 269 269 269 269 268 268 268 268 267 267 267 266 266 266 265 265 264 264 264 264 264 264 264 264 265 265 265 265 266 266 266 266 266 266 266 267 267 267 267 267 267 267 266 266 266 266 266 266 265 265 264 264 264 265 265 265 265 265 265 265 265 265 265 265 265 265 265 265 265 264 264 264
Wind_Speed
31 32 33 34 35 36 37 37 38 38 38 39 39 39 38 37 36 35 33 32 31 31 30 29 28 27 25 24 24 24 24 25 25 26 27 29 30 32 33 32 32 33 33 33 32 32 32 32 32 33 32 31 31 32 31 31 31 30 30 30 29 28 27 22 15 14 19 24 25 26 26 26 27 28 29 31 30 29 30 30 30 31 31 32 33
29 30 30 31 33 34 35 35 36 36 37 37 37 37 38 37 35 34 32 32 31 30 29 28 26 24 23 23 23 24 24 25 25 24 25 26 28 29 30 31 31 32 32 32 33 32 31 31 32 32 31 31 31 31 31 31 30 30 30 29 29 29 27 26 20 15 17 23 25 26 25 23 25 28 28 28 28 27 29 30 30 30 31 32 33
29 29 29 30 31 31 32 32 33 33 34 35 36 36 36 35 34 32 31 30 29 28 26 25 24 23 23 23 24 24 25 24 24 23 23 24 25 26 28 28 29 31 31 32 32 31 30 30 31 31 30 29 30 31 31 31 30 30 30 30 30 31 29 29 26 20 19 24 26 25 24 23 23 25 24 24 26 27 28 29 29 29 30 31 32
28 28 29 29 29 29 30 30 31 31 32 33 34 34 34 33 32 30 28 27 25 24 23 22 22 22 22 23 23 24 24 24 23 23 22 23 23 24 25 26 28 29 30 31 30 30 30 30 30 30 29 28 29 30 29 29 29 30 30 31 31 32 32 30 31 28 24 25 25 24 23 22 21 21 23 26 27 27 26 27 28 28 29 30 32
26 27 27 27 27 28 29 30 30 31 32 33 33 33 32 31 28 26 25 24 23 22 21 21 21 21 22 22 22 22 23 23 22 22 21 21 21 22 22 23 25 26 27 28 28 28 29 29 29 28 28 28 28 29 28 29 29 29 29 31 31 32 32 31 32 32 28 25 27 26 24 23 22 23 24 26 26 24 24 26 26 26 28 30 30
25 24 24 25 26 28 29 30 31 31 32 33 32 31 29 27 25 24 23 22 21 21 21 21 21 21 22 22 22 22 22 22 22 22 22 21 21 21 21 21 22 22 23 24 25 26 26 27 28 27 27 28 28 29 29 29 30 30 29 31 31 31 31 31 31 31 29 28 29 28 25 23 23 24 24 23 22 22 22 24 26 25 26 28 28
24 23 23 24 25 28 29 30 31 31 31 31 29 27 26 25 24 23 22 21 21 21 21 22 22 22 22 22 22 21 21 21 21 21 22 22 22 22 22 21 21 20 20 19 19 21 22 23 24 24 25 26 28 29 29 28 29 30 30 29 29 28 28 28 27 26 26 26 25 24 23 23 22 22 22 20 19 20 20 21 24 24 23 26 28
24 24 24 24 26 28 30 30 30 29 28 27 26 25 24 23 22 21 21 21 21 21 21 21 22 21 21 21 20 21 20 20 21 21 21 22 22 22 21 21 21 20 18 17 16 15 16 17 18 19 20 21 23 24 25 26 27 28 29 28 28 27 27 27 25 23 22 21 21 21 21 21 20 19 20 19 16 18 19 19 23 24 22 25 28
25 25 25 27 28 29 30 29 28 27 26 25 24 23 22 21 21 21 21 21 21 21 21 21 21 20 20 20 19 19 19 19 20 19 19 19 19 19 20 20 20 20 19 18 16 15 14 14 14 14 14 14 14 15 17 18 20 20 21 22 23 24 25 25 23 21 20 18 18 18 17 17 17 15 16 17 16 19 20 19 22 26 24 25 28
24 25 27 29 30 29 29 28 27 26 25 24 22 22 21 21 21 21 21 21 20 20 20 20 19 19 18 18 18 17 17 18 19 18 17 17 16 17 17 17 17 18 18 18 18 18 17 16 15 14 14 13 12 11 12 12 12 12 12 13 14 16 18 20 19 19 18 17 17 16 12 12 14 13 15 19 19 20 20 18 20 24 22 20 22
24 26 28 31 30 29 28 28 28 27 26 24 23 23 22 22 21 21 21 20 20 20 19 19 18 18 17 17 17 16 17 17 17 16 16 16 15 15 15 16 16 16 17 18 19 20 20 21 20 19 19 18 17 16 15 14 13 12 12 10 9 9 11 12 13 13 14 13 15 13 9 11 14 11 12 15 15 14 15 15 16 18 16 12 11
26 27 29 30 29 29 29 29 29 28 27 26 25 23 22 22 22 22 22 21 21 20 20 19 18 17 17 16 15 15 15 15 14 14 14 14 14 13 13 13 14 15 16 17 17 18 19 20 20 19 19 19 19 19 18 17 16 15 14 13 12 11 11 10 10 11 12 13 14 12 10 11 12 9 9 11 13 13 15 16 15 16 15 11 10
27 28 29 29 29 30 30 30 30 29 28 26 24 23 23 24 24 23 22 21 21 21 19 18 17 16 15 14 14 14 14 13 12 12 12 12 11 11 11 11 11 11 11 12 12 12 12 12 12 12 13 14 15 15 15 15 15 15 15 15 14 14 14 13 13 13 14 14 15 15 12 12 13 13 13 13 15 16 16 15 15 14 14 14 14
28 29 30 31 31 31 31 30 30 29 27 25 24 25 25 25 24 23 22 22 21 21 19 18 16 15 14 13 13 13 13 13 12 12 11 11 10 9 9 9 9 9 8 8 8 8 8 8 7 8 8 9 9 10 11 11 11 10 10 10 10 11 11 11 11 10 10 10 11 11 11 11 12 13 13 13 13 14 14 14 14 13 15 16 16
30 31 32 32 32 31 30 30 29 28 27 26 26 26 26 25 24 23 22 22 22 20 18 17 16 15 14 14 14 14 13 13 12 11 11 10 9 9 8 8 8 8 8 8 8 7 7 7 7 7 7 7 7 7 7 7 6 5 5 4 5 5 6 6 6 6 6 6 6 7 7 8 9 10 11 11 11 12 13 14 14 14 16 17 17
30 31 31 32 32 31 31 30 30 29 28 28 28 28 27 25 25 24 23 22 21 19 18 17 16 16 15 15 14 14 13 12 11 11 11 11 11 10 9 10 9 8 8 7 7 6 6 5 5 6 6 7 7 6 5 5 4 3 3 2 2 2 2 2 2 3 5 5 5 6 6 7 7 8 9 10 10 11 12 12 13 13 14 15 15
30 32 33 34 35 34 33 32 31 31 30 29 30 29 28 27 26 25 24 22 21 20 18 17 16 16 16 15 15 14 13 13 13 13 13 14 14 13 11 11 10 9 8 7 7 6 5 5 5 5 6 6 7 6 6 6 5 4 3 2 3 3 3 2 2 4 5 6 6 6 6 6 6 6 8 9 10 11 11 11 11 12 11 9 7
32 34 35 37 37 35 35 34 34 32 32 32 32 30 28 28 27 26 25 24 22 20 19 18 16 15 16 16 15 14 13 13 12 12 12 13 14 15 14 13 11 10 9 8 7 7 7 7 8 8 9 9 10 10 9 8 7 6 5 5 4 5 4 4 4 4 4 4 4 4 4 5 6 6 8 9 9 11 9 8 8 9 9 6 5
37 39 39 39 38 37 36 35 34 33 32 32 32 30 29 28 27 26 24 23 21 20 19 18 17 16 16 16 16 14 13 12 9 9 10 10 11 14 16 15 13 11 10 9 8 9 9 10 9 9 9 9 8 8 7 6 6 6 5 5 5 4 4 4 2 1 1 2 1 2 3 4 5 5 6 6 7 8 7 5 5 5 6 7 7
43 42 39 37 36 37 36 35 34 33 33 33 31 30 29 28 26 26 24 22 21 21 21 20 19 18 17 16 15 14 12 11 9 8 9 9 10 13 16 16 15 13 12 10 9 8 8 7 6 4 3 2 1 0 1 1 0 0 1 2 2 2 0 2 3 3 3 3 3 3 2 2 2 3 3 4 5 6 6 6 5 4 4 5 6
43 38 35 34 35 36 36 35 34 34 32 31 30 29 29 28 28 27 24 23 23 23 22 21 20 19 17 16 15 14 13 12 11 9 9 9 10 13 14 15 14 13 12 11 8 6 5 6 6 6 6 6 7 7 8 8 8 7 7 6 6 6 5 6 6 5 4 5 5 5 5 4 4 4 4 5 5 6 6 5 5 5 4 5 5
37 33 33 34 35 36 35 34 33 32 30 29 28 28 28 27 27 26 25 25 25 24 23 22 21 19 17 16 16 15 14 13 12 11 10 10 11 12 12 12 12 11 12 11 9 8 9 10 10 10 9 9 9 9 10 10 10 10 10 9 9 8 7 7 6 5 5 5 5 5 5 5 5 5 5 5 5 5 5 5 4 4 4 5 6
33 32 32 33 33 34 34 33 32 31 30 30 29 28 28 27 26 26 26 26 25 24 23 23 22 21 19 17 16 15 14 13 13 12 12 12 12 12 12 12 11 10 11 11 11 11 11 11 11 10 8 8 8 8 9 9 9 9 9 8 8 7 6 6 5 5 5 5 5 5 6 6 6 6 6 6 6 5 5 4 4 4 4 5 5
28 28 30 31 31 31 31 31 31 30 30 29 29 28 28 27 26 25 26 26 24 23 23 24 23 21 19 18 16 15 14 13 13 12 12 12 12 13 12 12 11 10 10 10 11 11 11 11 11 9 8 7 7 7 7 7 7 7 7 7 7 7 7 7 6 6 5 6 6 7 8 8 8 8 8 7 7 7 5 4 4 4 3 1 1
26 27 29 29 29 29 28 28 28 29 29 29 29 29 29 28 27 26 26 25 24 23 23 23 23 21 20 18 17 16 15 14 13 13 12 12 12 13 12 12 12 11 11 11 10 10 11 12 11 9 8 8 7 7 7 7 7 7 7 7 7 8 8 8 7 6 6 6 6 7 7 7 7 7 7 7 7 8 7 5 4 3 1 2 3
26 26 26 26 26 27 27 26 25 26 27 28 28 28 29 29 29 27 25 24 23 23 23 23 21 20 19 19 18 17 15 14 13 13 12 12 12 12 12 12 12 11 10 10 10 11 11 12 11 10 9 8 8 8 8 8 7 7 7 7 7 8 8 7 7 6 6 6 6 5 5 4 4 4 4 6 8 9 10 9 7 6 3 1 2
24 24 24 24 25 26 27 26 25 24 24 25 24 24 26 28 27 26 25 25 23 22 22 22 21 20 19 19 19 17 15 14 13 13 13 12 11 11 11 11 11 10 10 10 11 12 12 12 11 11 10 10 9 9 9 8 8 7 7 6 6 6 6 6 6 6 6 6 5 5 3 2 1 2 4 6 8 10 10 10 10 10 8 4 2
24 23 23 24 24 25 26 26 25 24 23 22 22 22 24 25 25 25 27 28 28 26 24 23 23 24 23 22 20 18 15 14 13 12 12 12 11 10 9 9 8 9 9 10 11 13 13 13 13 12 12 11 10 9 9 8 7 6 5 5 5 5 5 5 5 6 6 6 6 5 4 3 3 4 5 6 7 8 8 9 10 11 10 8 7
22 22 23 23 23 23 23 24 25 24 23 21 20 20 21 23 23 22 23 26 28 29 29 28 28 27 26 26 23 20 17 15 13 11 11 10 10 10 9 9 8 9 9 11 12 13 14 14 14 14 13 11 10 9 8 8 7 6 5 4 4 4 4 5 5 5 6 6 6 4 4 4 5 5 5 5 6 7 6 7 8 9 9 10 11
21 21 22 22 23 23 23 23 24 25 25 24 22 20 17 18 19 19 19 19 22 24 26 27 27 26 25 23 19 16 15 15 12 10 9 9 9 9 9 9 9 9 10 12 13 14 15 16 15 14 13 12 11 10 9 8 8 6 5 4 4 4 4 4 4 5 5 5 4 3 4 5 6 6 5 5 5 5 6 6 7 8 10 11 13
20 20 21 23 24 25 25 25 25 26 26 27 28 27 24 19 15 15 16 16 16 18 19 20 21 20 20 19 14 11 11 12 10 9 8 8 8 9 9 9 10 10 11 12 13 14 15 15 14 13 12 12 11 10 10 9 8 7 5 4 4 3 3 4 4 3 3 3 3 3 4 5 6 6 6 6 5 4 6 7 8 9 11 12 12
21 20 22 23 25 26 26 25 25 25 25 25 27 29 28 26 20 15 14 15 15 15 16 17 18 16 15 14 13 11 11 10 9 8 8 8 8 8 8 9 9 10 11 12 14 15 15 14 13 12 12 11 10 9 9 9 8 7 6 5 4 2 2 3 3 2 2 2 2 3 5 5 6 6 6 6 5 6 7 9 10 11 11 11 11
24 23 24 24 25 25 25 26 25 25 25 25 26 26 26 27 26 22 18 17 16 16 16 17 16 15 13 11 10 10 10 9 9 8 8 8 8 8 8 8 8 10 11 14 16 16 15 15 15 14 12 12 11 11 10 9 7 7 6 5 4 3 2 3 3 3 2 2 3 4 6 6 6 6 7 7 7 8 10 11 11 11 11 10 10
24 25 26 27 26 25 25 26 25 25 25 25 25 23 23 26 29 29 26 22 19 16 14 13 13 13 13 11 10 10 9 8 8 8 8 8 9 9 8 7 7 9 12 15 18 18 17 16 15 15 14 13 13 12 11 10 9 8 7 6 5 4 4 4 3 3 4 5 5 6 8 8 8 8 8 9 10 10 11 11 11 11 10 9 9
23 24 26 27 26 25 25 25 26 26 25 24 23 23 22 24 26 27 27 26 23 19 16 14 12 11 12 12 10 9 8 7 8 8 8 8 9 9 8 8 7 8 11 15 17 18 18 18 17 16 15 14 14 13 12 11 10 9 8 7 6 5 5 5 6 7 8 8 9 9 10 10 10 9 9 10 11 10 11 11 10 10 9 8 8
23 24 25 26 25 25 25 25 26 26 26 25 23 23 24 24 22 21 21 23 24 22 20 17 14 12 11 11 10 9 8 7 8 8 8 8 9 10 11 10 10 10 11 14 15 16 17 17 16 16 15 14 13 13 12 11 11 10 9 8 7 7 7 8 9 10 11 11 11 11 11 11 11 10 10 10 10 10 10 10 9 9 9 8 7
25 26 26 26 26 25 25 24 25 26 26 25 24 23 23 22 21 21 21 21 21 21 21 20 18 16 14 12 10 10 9 7 7 7 7 8 10 12 12 12 12 13 13 14 15 16 16 15 15 15 14 14 13 13 12 11 11 10 10 9 10 11 11 10 11 11 12 12 12 11 11 12 11 10 10 10 10 10 10 9 9 8 8 8 7
25 26 27 28 28 27 26 25 25 26 25 25 24 24 23 21 20 20 20 21 21 21 20 20 19 19 18 16 14 13 10 8 6 5 5 6 8 10 12 13 14 15 15 15 15 16 16 15 15 14 14 13 13 13 12 12 12 11 11 11 12 12 11 11 11 12 12 12 12 11 11 11 11 10 9 9 9 9 9 9 8 8 8 8 8
22 24 26 28 27 27 27 27 26 26 25 24 23 23 22 21 20 19 20 22 23 21 19 18 18 18 19 19 17 14 11 9 7 6 6 6 7 9 11 13 15 15 16 16 15 15 15 15 14 13 13 13 12 13 13 13 12 11 12 13 13 12 12 11 12 12 12 12 11 11 11 11 10 9 8 8 9 9 8 8 7 7 7 7 7
22 23 24 25 25 25 26 27 26 26 25 23 23 22 21 21 20 19 21 23 24 21 18 18 19 19 19 19 18 15 13 11 10 9 8 8 9 10 12 14 15 16 16 16 16 15 15 14 14 13 13 13 13 13 13 13 13 13 13 13 13 13 12 12 12 12 11 11 11 11 11 10 9 8 8 8 8 7 7 7 6 6 6 6 6
23 23 23 23 24 24 24 23 23 23 23 23 23 22 21 21 21 20 21 22 22 20 18 17 19 20 19 18 16 14 13 12 11 10 9 9 10 12 13 13 14 15 16 16 15 15 14 14 13 13 13 13 13 14 14 14 14 13 12 11 11 12 12 12 12 11 11 10 10 10 10 10 9 8 8 7 7 7 6 6 6 6 6 6 6
23 23 22 22 23 23 22 21 21 21 21 21 21 21 21 21 21 21 20 20 21 21 19 18 18 18 17 16 14 13 12 12 12 11 11 11 11 12 13 13 14 14 14 15 14 14 14 14 14 14 14 14 14 14 14 13 13 12 11 10 10 11 12 12 11 10 10 10 10 10 10 9 9 8 8 6 6 6 6 5 5 6 6 6 7
24 23 23 22 21 21 21 21 21 21 21 20 19 20 20 21 21 20 21 22 23 24 23 21 19 17 15 14 13 12 12 12 12 12 12 12 13 13 13 13 13 13 13 13 13 14 15 16 16 15 15 14 14 13 13 12 11 11 11 10 10 11 10 10 9 9 9 9 9 10 9 9 8 8 7 6 5 5 5 5 5 6 6 7 7
22 22 22 21 20 20 20 21 21 20 20 20 19 19 20 20 21 21 22 24 25 25 24 22 20 18 17 15 13 13 13 13 13 13 13 14 14 14 14 14 13 13 13 12 12 14 16 17 17 16 15 14 13 13 12 12 11 10 10 10 10 10 9 8 7 7 8 8 9 8 8 7 7 6 6 5 4 5 5 5 6 6 6 7 8
21 21 21 20 20 19 19 19 20 20 20 20 20 19 19 20 21 22 24 25 25 23 23 22 20 18 17 15 14 13 13 13 13 14 14 15 15 15 15 15 14 13 13 12 13 15 16 17 16 16 16 14 13 12 12 11 10 9 9 8 8 8 8 7 7 7 7 7 7 6 6 6 6 6 6 4 4 4 4 4 5 5 6 7 8
19 20 20 20 20 19 19 19 19 20 21 21 20 20 19 20 20 21 23 24 24 23 22 21 19 17 16 15 14 13 14 14 15 15 15 15 15 15 14 14 14 14 13 13 14 15 16 16 16 15 15 14 13 12 11 11 10 9 8 6 6 6 7 7 7 6 6 6 5 4 4 4 4 5 6 5 4 4 4 4 4 5 5 6 6
18 18 18 18 19 19 19 19 19 20 20 20 20 20 20 20 20 21 22 22 22 22 21 20 18 16 15 14 13 13 14 15 15 16 16 16 15 14 14 13 14 14 13 13 13 14 14 15 15 14 14 13 13 12 11 11 9 8 6 5 5 4 5 5 5 5 5 5 3 2 2 2 2 3 4 5 4 4 3 3 4 4 5 5 5
17 17 17 18 18 19 19 19 19 19 20 20 20 20 20 21 20 21 21 21 21 21 20 18 17 15 14 14 14 14 14 15 16 16 16 15 14 14 13 13 13 13 13 13 13 13 13 13 13 13 13 13 12 12 11 10 9 8 6 5 3 2 2 3 3 4 4 4 3 1 1 1 1 1 3 4 4 4 3 3 4 4 4 4 4
16 16 17 17 18 19 19 19 19 20 20 20 19 19 19 19 19 19 20 20 19 19 18 17 16 15 15 15 15 15 15 16 16 16 15 15 14 13 13 12 12 12 12 12 12 11 11 12 12 11 11 12 11 11 10 10 9 8 7 5 4 2 1 1 2 3 4 4 4 2 1 2 2 1 0 2 3 4 4 4 4 4 4 3 4
16 16 16 16 17 17 18 18 19 20 20 20 19 18 19 19 19 18 19 19 18 17 16 16 15 15 15 15 15 15 15 16 15 15 14 14 13 12 12 11 11 11 10 10 10 10 9 10 9 9 9 9 9 9 9 9 9 8 7 6 5 4 1 1 3 4 5 6 5 2 2 3 3 3 3 1 1 2 3 4 5 5 5 4 4
16 16 16 16 17 17 17 17 18 19 20 20 19 19 19 19 18 17 17 17 17 16 16 15 15 15 14 14 14 14 14 14 13 13 12 12 12 11 10 10 10 10 10 9 9 8 8 8 8 8 8 8 8 8 8 8 8 7 7 6 6 5 2 2 5 6 7 6 5 2 2 3 4 4 4 3 2 0 2 3 4 6 6 6 5
Wind_Direction
232 231 229 227 224 224 225 226 227 228 230 231 233 235 238 239 241 242 243 243 242 240 240 240 240 240 239 240 241 243 246 248 249 249 249 249 250 251 252 250 248 248 250 250 250 249 248 249 251 253 254 253 254 256 255 254 254 252 251 251 250 250 250 249 258 271 270 269 272 274 275 276 276 275 278 281 283 286 289 291 292 290 287 287 288
232 231 229 227 227 227 228 230 230 230 230 231 232 234 237 239 240 241 241 241 240 238 237 238 237 237 238 239 242 244 246 249 250 250 250 250 250 251 251 250 249 249 249 250 250 250 249 249 251 253 254 254 254 255 256 256 255 253 252 250 251 252 251 251 255 267 273 271 270 271 271 268 268 272 273 275 280 287 288 288 289 288 288 290 289
233 231 230 230 232 234 234 234 233 231 229 230 231 233 235 237 237 237 237 236 234 232 233 234 234 235 236 238 239 241 244 246 249 251 252 253 253 254 253 252 251 251 250 250 251 251 250 249 251 253 253 253 253 254 255 255 254 254 254 252 252 254 252 251 253 258 269 273 269 269 271 268 267 271 275 276 280 282 281 284 287 288 289 290 289
233 230 230 232 235 236 237 236 234 231 230 230 231 232 233 233 232 231 231 230 228 228 229 230 231 231 233 234 237 239 242 244 247 250 252 255 257 258 258 257 256 254 253 254 254 253 252 251 253 255 254 252 253 254 254 255 254 254 255 255 254 256 256 253 252 253 260 271 272 270 272 272 271 274 279 280 280 278 277 281 284 286 289 290 289
233 230 229 231 232 233 235 234 232 230 229 229 229 229 228 227 226 225 225 225 225 225 225 226 227 229 232 234 237 239 242 244 246 248 250 252 254 256 258 259 259 259 258 258 258 257 255 255 257 258 256 253 253 255 255 256 256 255 257 258 256 256 257 255 252 252 254 263 271 273 273 273 274 279 280 279 279 278 279 280 280 282 285 286 286
233 231 231 231 231 232 231 230 228 227 226 225 224 223 221 220 220 221 221 222 221 222 223 226 228 231 233 235 237 239 241 243 246 247 248 248 249 251 253 255 258 260 261 261 262 261 260 261 261 260 258 255 255 256 257 256 255 255 256 258 257 256 257 256 253 251 253 258 266 271 274 273 275 280 282 280 280 281 282 282 281 279 281 284 286
233 232 232 230 229 228 227 225 223 222 222 221 220 219 217 217 218 219 220 220 221 223 224 226 229 231 233 235 238 240 243 245 247 248 249 249 249 249 250 252 254 256 259 260 261 262 262 262 263 262 260 260 259 259 259 259 257 255 256 258 260 259 258 259 256 254 255 259 264 270 275 276 277 281 285 286 283 278 277 278 280 280 282 286 287
231 230 228 225 224 224 222 220 219 218 218 218 217 216 215 216 216 217 219 220 222 224 225 227 230 233 235 238 241 244 246 247 248 249 250 250 250 250 249 250 251 252 254 255 256 257 257 258 259 260 261 262 262 262 261 261 260 258 259 262 262 260 258 258 258 257 259 263 267 270 274 277 278 283 288 286 278 275 276 275 277 281 285 287 287
226 223 221 221 222 222 220 217 216 215 215 214 214 215 215 215 216 217 218 220 222 225 228 231 234 235 238 240 242 244 246 247 248 248 249 250 251 252 251 250 251 252 252 253 253 252 251 251 250 251 252 255 259 261 262 262 262 261 262 263 262 260 258 255 254 254 257 262 266 269 273 278 283 287 286 281 277 282 286 281 278 283 288 288 287
220 218 217 220 222 220 218 216 214 212 212 213 215 215 215 215 216 216 219 221 225 229 231 232 234 236 238 240 242 243 244 246 248 247 247 248 250 252 253 254 254 255 256 257 256 255 255 256 255 252 252 256 259 259 260 262 263 266 269 270 269 269 265 260 258 257 256 257 261 264 264 271 280 283 281 284 287 288 290 286 282 288 293 291 291
216 216 218 221 220 218 217 215 212 211 213 215 215 214 214 215 216 219 221 223 227 229 232 233 235 238 240 241 242 242 241 243 245 245 244 244 246 249 253 257 258 258 259 260 259 259 258 258 260 261 260 262 265 265 266 268 269 269 271 271 274 278 275 270 270 273 271 271 272 272 267 274 288 293 289 294 301 301 301 304 302 302 303 298 296
216 215 218 219 217 216 215 212 211 213 215 215 214 213 214 215 217 220 222 223 226 228 231 233 236 237 238 238 236 234 234 238 240 241 242 242 243 246 248 251 255 258 260 262 263 264 263 262 263 264 265 266 267 269 270 273 275 274 273 272 273 278 281 280 284 286 285 283 283 286 285 287 297 304 298 298 304 303 303 309 311 308 304 298 294
215 216 217 217 216 216 214 213 213 215 215 215 214 212 213 215 218 220 221 222 224 226 227 229 231 232 232 230 228 228 231 235 238 240 243 245 243 242 243 246 250 254 258 260 262 263 264 266 266 265 265 266 267 269 270 273 276 277 277 277 276 275 276 280 284 284 279 274 274 276 278 281 287 292 293 294 296 296 297 299 299 296 292 290 288
215 216 217 217 218 217 215 215 215 215 215 214 213 212 214 217 219 219 219 218 220 222 223 223 224 226 226 223 222 226 229 232 235 237 240 244 243 238 238 240 242 243 246 248 250 251 252 255 255 255 258 261 264 267 270 271 274 275 276 275 272 269 269 273 276 277 275 273 273 275 280 285 290 294 298 300 298 298 298 296 295 292 289 287 288
215 217 218 218 218 218 216 216 215 215 215 213 212 213 214 216 217 216 216 217 220 221 222 222 220 217 216 217 217 222 228 231 234 236 235 235 234 229 226 226 226 227 228 232 237 240 243 244 243 244 251 260 266 264 262 264 268 273 274 269 262 256 256 260 265 271 278 282 284 287 290 295 298 296 296 298 297 296 293 293 294 292 291 292 292
215 217 218 219 219 218 217 215 214 214 212 211 211 212 213 214 214 213 213 215 218 220 219 217 214 209 209 214 216 219 224 227 227 228 227 224 220 217 214 215 215 213 213 220 224 226 229 231 232 237 243 253 263 265 266 271 276 278 269 235 220 214 220 255 276 286 295 300 303 307 308 308 304 297 293 294 294 293 292 292 295 295 299 300 296
218 218 218 219 219 218 216 213 212 212 210 209 209 211 211 212 211 210 210 211 212 214 212 208 206 206 205 209 212 215 219 224 223 224 224 220 214 210 207 207 207 206 207 215 221 223 230 235 239 246 251 257 264 268 270 273 274 271 258 221 210 214 218 247 271 280 290 297 303 308 311 309 303 296 295 296 298 300 302 304 306 309 315 312 299
221 219 219 220 219 218 216 213 212 210 208 208 209 210 210 210 209 209 209 210 210 208 205 201 200 202 204 204 207 212 217 222 222 220 219 215 208 204 203 201 200 202 204 208 219 228 235 241 246 251 256 261 265 266 266 268 265 260 251 239 232 234 248 268 275 274 273 274 281 286 288 295 299 300 305 309 311 314 317 320 319 321 327 327 315
224 223 221 220 218 217 215 213 211 209 209 210 211 211 210 208 208 208 208 209 207 201 196 194 192 195 200 202 205 210 214 212 208 202 200 202 198 194 195 196 194 197 201 205 217 230 238 243 248 251 253 256 262 266 266 264 260 255 250 243 238 248 276 290 290 246 196 191 237 277 287 307 317 322 328 336 341 346 354 356 341 331 330 326 322
229 227 223 219 218 217 215 212 211 211 212 213 212 211 209 206 204 204 203 200 196 191 189 189 187 187 193 199 201 202 198 187 178 178 183 187 185 183 186 190 190 191 197 206 217 227 230 227 223 220 219 211 192 57 65 73 81 206 203 201 182 164 56 76 98 100 99 100 91 83 79 49 28 20 15 22 25 21 21 15 0 351 334 321 322
233 228 222 217 216 215 213 212 212 212 213 212 209 207 206 203 201 198 194 188 185 183 184 185 183 183 188 193 190 183 177 170 162 159 162 168 174 178 183 189 191 190 191 198 205 197 166 147 134 117 107 105 99 93 89 85 84 87 88 93 103 103 96 97 102 106 105 104 103 103 103 96 82 73 61 52 46 35 24 13 0 350 333 321 317
231 226 219 215 213 212 211 211 210 210 210 208 204 202 200 200 198 193 185 181 179 178 179 180 178 176 178 182 179 172 168 166 158 152 150 150 156 165 172 178 181 178 172 169 167 153 134 124 116 107 103 104 101 98 96 92 91 91 90 92 98 101 103 106 110 117 119 118 116 106 97 88 74 65 56 46 39 29 18 11 1 347 326 311 306
227 221 215 211 209 208 207 207 206 206 205 204 200 197 195 194 191 186 180 177 174 173 174 173 169 166 166 168 169 168 166 165 160 155 150 146 145 150 153 155 158 159 156 153 150 144 135 128 122 116 116 115 110 108 107 105 104 103 103 108 112 115 123 129 132 133 123 109 94 75 62 53 43 39 31 21 14 9 3 356 347 337 319 302 304
219 212 209 206 205 204 203 202 202 201 201 198 195 193 191 188 185 181 178 175 171 169 169 168 164 161 160 160 163 166 166 166 165 163 160 156 154 154 155 155 158 162 161 157 153 150 145 138 134 137 142 137 128 125 123 120 120 120 122 129 135 143 149 147 141 134 112 85 67 53 43 34 25 20 15 5 358 353 348 342 335 329 324 336 54
208 205 204 201 200 199 197 197 198 197 196 194 192 190 188 184 180 178 177 175 171 167 167 167 164 161 160 161 164 167 169 170 170 169 168 169 168 167 169 170 171 173 171 164 158 155 151 145 146 152 155 149 146 143 137 134 136 137 140 145 149 153 153 147 142 132 108 84 69 54 42 32 20 14 9 1 353 349 345 343 338 331 322 127 115
202 201 199 196 194 192 189 188 190 192 192 192 192 190 187 182 177 175 176 175 172 169 167 166 165 163 164 166 167 168 171 174 176 175 174 174 174 176 179 180 180 180 176 166 159 157 154 154 159 165 162 160 161 157 148 145 146 146 148 151 151 151 150 147 143 130 113 100 88 70 53 37 22 19 20 13 9 7 3 359 358 1 14 107 124
199 196 192 190 188 185 183 181 181 183 184 186 187 186 184 181 177 175 175 173 171 169 167 166 166 166 166 169 170 170 172 175 177 178 178 177 177 178 180 183 182 179 175 169 165 163 162 164 170 173 168 166 166 161 154 152 152 151 150 150 151 149 145 143 140 132 124 120 114 105 98 93 75 67 55 36 26 24 20 14 12 11 12 16 26
196 190 186 184 181 180 180 177 173 173 175 177 180 179 180 181 179 180 180 176 172 171 170 171 173 172 171 170 169 169 173 176 176 177 178 178 178 178 176 177 178 177 176 178 178 175 174 176 178 178 174 170 166 162 159 158 158 157 153 147 144 145 146 147 144 138 135 135 137 136 135 131 109 87 76 57 42 34 27 24 23 17 13 21 26
189 183 180 177 174 174 173 171 168 165 163 164 167 171 178 182 181 180 182 181 179 176 175 177 179 178 175 173 171 171 174 176 175 175 176 177 178 177 175 174 176 178 180 185 187 185 183 182 181 179 178 175 169 166 167 167 165 165 161 153 144 144 149 149 144 141 141 142 144 143 133 118 102 93 94 82 59 42 29 27 28 23 22 32 33
177 175 172 169 169 168 165 165 165 160 156 154 149 146 156 173 179 177 177 182 185 183 181 181 181 180 177 173 173 176 175 173 174 178 180 182 182 180 180 181 182 182 184 189 194 191 188 187 187 185 185 181 175 170 170 170 168 165 161 160 155 144 135 127 125 133 144 148 146 134 112 100 92 87 88 82 67 52 43 42 41 39 40 39 33
169 170 170 169 168 166 163 161 159 156 153 150 143 134 129 133 147 161 166 171 180 183 183 181 179 180 178 171 166 165 166 169 177 183 185 190 190 187 187 188 189 190 191 194 198 199 197 195 192 190 187 183 180 178 175 171 166 159 151 145 142 141 135 123 120 135 154 157 141 118 99 90 84 80 79 81 75 61 56 57 57 56 55 49 37
171 170 170 169 167 164 160 158 156 153 150 147 144 139 131 122 119 125 140 151 158 162 165 165 164 168 173 171 164 160 163 172 182 187 189 192 191 191 194 193 193 196 198 200 203 205 204 199 193 189 186 182 180 179 176 172 170 169 165 151 138 139 141 128 131 159 176 159 124 95 85 82 80 79 81 87 88 76 67 66 66 65 62 56 47
175 170 167 164 162 161 159 157 157 156 155 153 150 147 142 136 129 123 122 128 135 141 148 153 157 158 160 163 164 163 165 173 179 183 187 188 188 193 197 194 193 196 200 204 205 203 202 199 194 191 187 181 175 172 172 174 176 177 176 166 155 157 160 153 166 180 167 140 111 87 79 78 80 82 83 84 83 77 71 69 69 69 66 59 53
176 171 167 164 162 161 160 160 160 159 159 158 156 153 150 146 140 134 130 127 126 126 131 140 150 156 156 158 163 166 169 175 178 183 189 189 189 197 201 196 195 199 202 206 207 203 198 193 189 186 183 180 177 177 176 177 178 176 175 172 166 167 171 172 169 151 126 114 106 97 92 88 86 84 83 82 80 76 71 69 67 66 65 61 56
171 168 167 165 163 161 161 161 160 159 159 158 157 155 152 148 145 143 141 139 136 131 127 130 139 151 158 161 163 166 172 177 176 182 192 192 188 195 199 197 199 203 202 204 205 202 194 187 183 182 183 184 184 184 181 179 182 181 176 170 164 163 163 152 136 124 114 106 101 99 100 98 92 87 86 84 78 73 70 70 68 64 62 60 52
166 163 164 164 163 161 161 161 160 160 159 158 157 155 152 151 149 146 144 143 141 137 136 137 139 146 156 162 164 164 171 178 176 178 190 193 191 195 198 195 197 199 194 192 193 191 187 186 185 184 186 188 187 187 185 183 181 179 173 166 155 143 135 128 123 119 113 106 103 102 103 102 96 92 91 84 76 73 71 70 71 67 59 55 48
165 162 163 164 163 160 159 159 160 160 159 157 155 154 151 151 150 145 143 144 144 143 145 147 148 149 154 160 165 168 172 179 179 178 185 192 195 202 207 204 201 197 190 184 184 183 182 185 186 185 187 189 187 186 186 181 174 170 168 162 149 136 128 124 122 121 116 112 109 106 106 104 100 96 94 87 79 76 71 67 68 65 55 50 45
167 165 164 164 161 158 157 157 158 159 158 156 155 154 151 151 150 147 147 151 152 151 152 156 158 160 160 162 169 175 177 179 180 178 184 193 196 203 208 206 201 196 190 185 186 186 185 184 185 186 187 187 183 181 178 173 170 166 159 150 141 135 132 129 125 123 119 114 111 109 108 106 100 97 95 90 84 80 73 68 66 63 55 51 45
164 164 164 163 160 158 157 156 155 156 156 155 156 155 152 151 151 151 154 157 158 157 159 163 167 169 168 169 175 181 183 183 182 180 184 189 190 192 196 194 191 189 187 183 184 186 184 181 180 182 183 180 177 174 171 167 165 160 152 145 139 135 134 131 127 123 119 115 112 111 110 107 103 99 98 96 90 84 79 75 70 64 58 51 42
157 157 159 158 157 156 155 154 155 156 155 156 156 156 155 155 156 158 160 162 163 164 167 170 172 174 176 178 183 188 190 189 188 186 183 181 181 182 185 186 185 183 181 178 179 180 177 174 173 174 174 172 169 166 164 162 157 152 149 146 140 135 132 130 127 123 120 118 117 115 114 112 109 105 101 100 97 92 87 84 79 73 66 55 43
152 152 154 155 155 154 153 153 155 157 157 158 158 157 158 159 160 161 162 164 166 167 169 171 172 173 176 181 188 196 202 197 190 185 181 179 180 180 181 183 183 181 178 176 175 174 171 169 168 167 165 162 161 159 158 157 154 151 149 144 137 132 130 128 126 123 119 119 117 115 114 115 112 104 99 100 101 99 96 92 89 81 71 62 55
150 149 150 152 154 153 152 154 157 158 158 158 159 160 161 160 160 161 162 163 165 163 160 159 161 165 172 180 187 196 202 196 186 180 178 177 178 177 176 177 178 178 177 176 174 173 170 165 162 161 158 156 156 156 155 155 155 151 145 134 124 121 122 124 124 121 118 115 114 111 111 114 111 103 96 95 98 97 91 86 86 79 65 57 53
153 151 151 153 155 156 156 157 157 157 157 158 159 161 161 159 159 161 162 162 162 159 153 149 151 156 163 172 178 183 186 184 180 177 175 174 173 172 170 170 170 170 172 174 175 176 172 162 156 155 154 152 153 153 151 152 153 149 139 124 111 110 114 117 117 116 113 111 113 112 110 111 108 100 94 94 96 92 84 75 70 65 55 44 41
152 151 152 153 154 155 156 157 156 155 155 156 156 157 158 158 158 159 160 159 159 158 153 150 152 155 158 163 170 174 176 176 176 175 173 172 171 169 167 167 167 167 169 170 169 169 166 160 155 154 152 150 151 151 150 150 150 144 135 122 110 105 108 108 105 103 101 103 108 109 107 104 99 91 90 97 97 91 85 75 61 55 51 42 34
148 147 147 148 148 148 148 151 152 151 150 149 148 149 153 155 156 158 158 157 157 157 155 156 158 160 161 163 168 171 172 173 173 172 171 169 168 166 166 167 169 169 168 165 161 161 162 161 159 157 154 152 152 150 149 147 144 138 133 125 112 104 102 97 92 88 89 94 100 102 101 99 90 79 75 79 80 77 75 72 64 59 54 44 32
143 142 142 141 141 141 142 144 147 147 147 147 146 144 147 151 153 156 157 158 158 158 157 158 162 164 164 166 168 171 171 171 170 168 166 165 162 160 160 161 163 164 164 161 160 161 163 165 165 163 158 155 153 151 148 145 143 143 141 132 115 101 95 92 85 77 76 82 91 99 104 102 91 80 70 61 60 63 61 62 71 69 56 43 30
135 136 138 139 138 137 138 140 142 143 144 145 144 143 144 147 149 152 155 157 159 158 157 158 162 165 165 167 169 170 171 170 168 165 164 163 161 159 159 157 158 159 159 159 160 162 162 164 166 165 162 159 157 155 152 150 151 152 149 132 108 88 83 84 78 66 61 62 70 98 128 133 111 91 70 50 48 57 58 61 69 63 48 35 24
132 132 134 137 137 138 139 140 140 140 141 142 142 142 143 145 146 149 152 155 156 156 156 157 160 163 163 165 167 169 170 169 167 164 163 163 163 162 161 159 156 155 154 155 158 160 161 161 163 164 165 165 164 163 162 162 164 167 166 154 135 107 77 66 54 43 39 34 27 32 181 197 171 91 62 43 37 39 46 55 59 48 37 30 21
130 131 133 135 137 139 141 143 143 143 144 141 137 136 139 142 143 146 149 152 153 154 155 156 157 160 161 161 164 167 167 166 165 164 165 166 166 164 162 160 157 154 152 151 153 155 157 158 160 162 166 169 171 173 175 177 179 182 185 184 178 169 122 18 1 357 360 358 350 331 232 220 231 220 107 37 29 30 40 51 53 45 39 36 26
125 129 131 131 133 137 141 142 142 144 146 144 139 136 138 142 143 145 149 150 149 150 153 154 155 158 160 161 163 165 166 166 166 165 164 164 165 164 162 159 156 153 152 151 150 152 154 157 159 162 166 172 178 182 185 188 192 195 199 197 189 181 183 297 305 313 325 330 327 309 227 217 231 233 233 256 359 29 42 51 52 46 41 42 40
121 123 125 127 130 133 136 136 137 141 145 145 142 141 142 143 144 147 150 151 149 148 150 152 153 156 158 160 161 163 163 161 159 157 155 155 156 156 155 153 152 150 149 149 150 152 154 158 161 165 170 175 181 185 190 195 199 203 207 202 190 183 197 272 286 293 304 311 310 286 231 226 233 231 227 228 227 173 61 55 48 39 37 43 46